Adana Incirlik AFB, Turkey

3:14 PM +03 on December 17, 2017 (GMT +0300)
Incirlik Air Base

Weather History for LTAG - November, 2013

Change the Weather History Date:

Sunday, November 17, 2013

  Actual Average Record
Temperature  
Mean Temperature 64 °F -  
Max Temperature 77 °F 66 °F 86 °F (2010)
Min Temperature 51 °F 48 °F 42 °F (2006)
Degree Days  
Heating Degree Days 1    
Growing Degree Days 14 (Base 50)    
Moisture  
Dew Point 43 °F    
Average Humidity 48    
Maximum Humidity 77    
Minimum Humidity 19    
Precipitation  
Precipitation 0.00 in - - ()
Sea Level Pressure  
Sea Level Pressure 29.95 in    
Wind  
Wind Speed 5 mph ()    
Max Wind Speed 14 mph    
Max Gust Speed -    
Visibility 6.1 miles    
Events      
Averages and records for this station are not official NWS values.
T = Trace of Precipitation, MM = Missing Value Source: Averaged Metar Reports

Daily Weather History Graph

Daily Weather History Graph

Search for Another Location

Airport or City:

Trip Planner

Search our weather history database for the weather conditions in past years. The results will help you decide how hot, cold, wet, or windy it might be!

Date:

Astronomy

Nov. 17, 2013 Rise Set
Actual Time 6:18 AM EET 4:27 PM EET
Civil Twilight 5:51 AM EET 4:55 PM EET
Nautical Twilight 5:19 AM EET 5:26 PM EET
Astronomical Twilight 4:48 AM EET 5:57 PM EET
Moon 4:29 PM EET 5:53 AM EET
Length of Visible Light 11h 04m
Length of Day
10h 08m
Full, 100% of the Moon is Illuminated
Nov 17
Full
Nov 17
Full
Nov 25
Last Quarter
Dec 3
New
Dec 9
First Quarter

Hourly Weather History & Observations

Time (EET) Temp. Dew Point Humidity Pressure Visibility Wind Dir Wind Speed Gust Speed Precip Events Conditions
12:20 AM 53.6 °F 42.8 °F 67% 29.98 in - NNE 6.9 mph - N/A   Clear
12:50 AM 51.8 °F 42.8 °F 71% 29.95 in - NNE 10.4 mph - N/A   Clear
1:20 AM 53.6 °F 42.8 °F 67% 29.95 in - NNE 8.1 mph - N/A   Clear
1:50 AM 53.6 °F 42.8 °F 67% 29.95 in - North 4.6 mph - N/A   Clear
2:00 AM 54 °F 43 °F 57% 29.96 in 6 mi North 4.6 mph - -  
2:20 AM 53.6 °F 42.8 °F 67% 29.95 in - Calm Calm - N/A   Clear
2:50 AM 55.4 °F 42.8 °F 63% 29.95 in - NE 2.3 mph - N/A   Clear
3:20 AM 55.4 °F 42.8 °F 63% 29.95 in - NE 4.6 mph - N/A   Clear
3:50 AM 55.4 °F 42.8 °F 63% 29.95 in - NNE 2.3 mph - N/A   Clear
4:20 AM 53.6 °F 42.8 °F 67% 29.95 in - NNW 2.3 mph - N/A   Clear
4:50 AM 53.6 °F 42.8 °F 67% 29.95 in - NNW 4.6 mph - N/A   Clear
5:00 AM 53 °F 43 °F 61% 29.96 in 6 mi NNW 4.6 mph - -  
5:20 AM 55.4 °F 42.8 °F 63% 29.95 in - Calm Calm - N/A   Clear
5:50 AM 53.6 °F 41.0 °F 62% 29.95 in - Calm Calm - N/A   Clear
6:20 AM 51.8 °F 42.8 °F 71% 29.98 in - WNW 3.5 mph - N/A   Clear
6:50 AM 51.8 °F 44.6 °F 76% 29.98 in - SW 2.3 mph - N/A   Clear
7:20 AM 53.6 °F 46.4 °F 77% 29.98 in - West 4.6 mph - N/A   Clear
7:50 AM 57.2 °F 48.2 °F 72% 30.01 in - NNW 3.5 mph - N/A   Clear
8:00 AM 57 °F 49 °F 65% 30.00 in 6 mi NNW 2.3 mph - -  
8:20 AM 62.6 °F 44.6 °F 52% 30.01 in - NNW 3.5 mph - N/A   Clear
8:50 AM 64.4 °F 44.6 °F 49% 29.98 in - NNW 4.6 mph - N/A   Clear
9:20 AM 68.0 °F 42.8 °F 40% 29.98 in - North 3.5 mph - N/A   Clear
9:50 AM 71.6 °F 42.8 °F 35% 29.98 in - North 4.6 mph - N/A   Clear
10:20 AM 73.4 °F 42.8 °F 33% 29.98 in - NE 9.2 mph - N/A   Clear
10:50 AM 75.2 °F 42.8 °F 31% 29.98 in - East 6.9 mph - N/A   Clear
11:00 AM 74 °F 43 °F 22% 29.97 in 6 mi East 6.9 mph - -  
11:20 AM 75.2 °F 42.8 °F 31% 29.95 in - NNE 6.9 mph - N/A   Clear
11:50 AM 75.2 °F 42.8 °F 31% 29.95 in - NE 6.9 mph - N/A   Clear
12:20 PM 77.0 °F 42.8 °F 29% 29.92 in - ENE 3.5 mph - N/A   Clear
12:50 PM 77.0 °F 42.8 °F 29% 29.92 in - East 5.8 mph - N/A   Clear
1:20 PM 77.0 °F 42.8 °F 29% 29.92 in - South 2.3 mph - N/A   Clear
1:50 PM 77.0 °F 42.8 °F 29% 29.92 in - SSE 2.3 mph - N/A   Clear
2:00 PM 77 °F 43 °F 19% 29.91 in 6 mi SSE 2.3 mph - -  
2:20 PM 77.0 °F 42.8 °F 29% 29.92 in - SE 4.6 mph - N/A   Clear
2:50 PM 75.2 °F 42.8 °F 31% 29.92 in - SE 3.5 mph - N/A   Clear
3:20 PM 75.2 °F 42.8 °F 31% 29.92 in - SSE 2.3 mph - N/A   Clear
3:50 PM 73.4 °F 42.8 °F 33% 29.92 in - SSE 2.3 mph - N/A   Clear
4:20 PM 71.6 °F 44.6 °F 38% 29.92 in - South 5.8 mph - N/A   Clear
4:50 PM 66.2 °F 46.4 °F 49% 29.92 in 6.2 mi NNE 3.5 mph - N/A   Partly Cloudy
5:00 PM 67 °F 46 °F 35% 29.92 in 6 mi NNE 3.5 mph - -   Scattered Clouds
5:20 PM 69.8 °F 42.8 °F 38% 29.92 in 6.2 mi NNE 3.5 mph - N/A   Partly Cloudy
5:50 PM 66.2 °F 42.8 °F 43% 29.92 in 6.2 mi NNE 4.6 mph - N/A   Partly Cloudy
6:20 PM 64.4 °F 42.8 °F 45% 29.92 in 6.2 mi North 6.9 mph - N/A   Partly Cloudy
6:50 PM 62.6 °F 42.8 °F 48% 29.95 in 6.2 mi NNE 5.8 mph - N/A   Partly Cloudy
7:20 PM 60.8 °F 42.8 °F 52% 29.95 in 6.2 mi North 5.8 mph - N/A   Partly Cloudy
7:50 PM 62.6 °F 42.8 °F 48% 29.95 in 6.2 mi NE 4.6 mph - N/A   Partly Cloudy
8:00 PM 62 °F 42 °F 36% 29.95 in 6 mi NE 4.6 mph - -   Scattered Clouds
8:20 PM 64.4 °F 42.8 °F 45% 29.95 in 6.2 mi NNE 8.1 mph - N/A   Partly Cloudy
8:50 PM 60.8 °F 41.0 °F 48% 29.95 in 6.2 mi NE 12.7 mph - N/A   Partly Cloudy
9:20 PM 60.8 °F 42.8 °F 52% 29.95 in 6.2 mi NE 8.1 mph - N/A   Partly Cloudy
9:50 PM 60.8 °F 42.8 °F 52% 29.95 in 6.2 mi NE 11.5 mph - N/A   Partly Cloudy
10:20 PM 60.8 °F 42.8 °F 52% 29.95 in 6.2 mi NE 11.5 mph - N/A   Partly Cloudy
10:50 PM 62.6 °F 41.0 °F 45% 29.98 in 6.2 mi NE 8.1 mph - N/A   Partly Cloudy
11:00 PM 62 °F 42 °F 36% 29.98 in 6 mi NE 8.1 mph - -   Scattered Clouds
11:20 PM 62.6 °F 41.0 °F 45% 29.98 in 6.2 mi NE 13.8 mph - N/A   Scattered Clouds
11:50 PM 62.6 °F 41.0 °F 45% 29.98 in 6.2 mi ENE 11.5 mph - N/A   Scattered Clouds